Location: Famechon
(49.7599°N, 2.0615°E)
Time: 20:15:56
(UTC+00:00)

Cosmos 1655 Rocket - Pass Details

Date: 03 February 2023
Orbit: 970 x 1006 km, 83.0° (Epoch: 21 March)

Event Time Altitude Azimuth Distance (km) Brightness Sun altitude
Rises 17:24:29 0° 350° (N) 3,702 6.9 -6.1°
Reaches altitude 10° 17:27:01 10° 352° (N) 2,744 6.3 -6.5°
Maximum altitude 17:33:19 84° 80° (E) 988 4.0 -7.4°
Drops below altitude 10° 17:39:32 10° 170° (S) 2,709 6.4 -8.4°
Sets 17:42:02 0° 171° (S) 3,650 7.1 -8.8°
